Time,TemperatureF,DewpointF,PressureIn,WindDirection,WindDirectionDegrees,WindSpeedMPH,WindSpeedGustMPH,Humidity,HourlyPrecipIn,Conditions,Clouds,dailyrainin,SoftwareType,DateUTC
2013-02-16 00:13:00,39.2,34.5,29.82,NNW,337,0.0,-999.0,83,-99.99,,,0.00,Acu-Link.com,2013-02-16 05:13:00,
2013-02-16 00:28:00,39.2,34.5,29.82,NNW,337,2.7,-999.0,83,-99.99,,,0.00,Acu-Link.com,2013-02-16 05:28:00,
2013-02-16 00:43:00,38.7,35.2,29.82,NW,315,4.2,-999.0,87,-99.99,,,0.00,Acu-Link.com,2013-02-16 05:43:00,
2013-02-16 00:58:00,38.3,35.6,29.82,NNE,22,0.0,-999.0,90,-99.99,,,0.00,Acu-Link.com,2013-02-16 05:58:00,
2013-02-16 01:13:00,37.9,35.8,29.81,WNW,292,1.7,-999.0,92,-99.99,,,0.00,Acu-Link.com,2013-02-16 06:13:00,
2013-02-16 01:28:00,37.4,36.9,29.81,NE,45,0.0,-999.0,98,-99.99,,,0.00,Acu-Link.com,2013-02-16 06:28:00,
2013-02-16 01:44:00,36.9,36.4,29.81,NNW,337,0.0,-999.0,98,-99.99,,,0.00,Acu-Link.com,2013-02-16 06:44:00,
2013-02-16 01:59:00,36.5,36.0,29.81,North,0,0.0,-999.0,98,-99.99,,,0.00,Acu-Link.com,2013-02-16 06:59:00,
2013-02-16 02:14:00,36.3,35.8,29.80,South,180,0.0,-999.0,98,-99.99,,,0.00,Acu-Link.com,2013-02-16 07:14:00,
2013-02-16 02:29:00,36.1,35.6,29.80,WSW,247,0.0,-999.0,98,-99.99,,,0.00,Acu-Link.com,2013-02-16 07:29:00,
2013-02-16 02:44:00,35.8,35.3,29.80,South,180,0.0,-999.0,98,-99.99,,,0.00,Acu-Link.com,2013-02-16 07:44:00,
2013-02-16 02:59:00,35.4,34.9,29.79,SSW,202,0.0,-999.0,98,-99.99,,,0.00,Acu-Link.com,2013-02-16 07:59:00,
2013-02-16 03:14:00,35.2,34.7,29.78,SSE,157,0.0,-999.0,98,-99.99,,,0.00,Acu-Link.com,2013-02-16 08:14:00,
2013-02-16 03:29:00,35.1,34.6,29.79,NNW,337,0.0,-999.0,98,-99.99,,,0.00,Acu-Link.com,2013-02-16 08:29:00,
2013-02-16 03:45:00,34.9,34.4,29.79,North,0,0.0,-999.0,98,-99.99,,,0.00,Acu-Link.com,2013-02-16 08:45:00,
2013-02-16 04:00:00,35.1,34.6,29.79,NW,315,2.2,-999.0,98,-99.99,,,0.00,Acu-Link.com,2013-02-16 09:00:00,
2013-02-16 04:18:00,35.1,34.3,29.79,WSW,247,1.7,-999.0,97,-99.99,,,0.00,Acu-Link.com,2013-02-16 09:18:00,
2013-02-16 04:33:00,34.9,30.9,29.78,NW,315,0.0,-999.0,85,-99.99,,,0.00,Acu-Link.com,2013-02-16 09:33:00,
2013-02-16 04:48:00,34.5,29.9,29.79,NW,315,2.2,-999.0,83,-99.99,,,0.00,Acu-Link.com,2013-02-16 09:48:00,
2013-02-16 05:03:00,34.2,29.9,29.79,NW,315,0.0,-999.0,84,-99.99,,,0.00,Acu-Link.com,2013-02-16 10:03:00,
2013-02-16 05:19:00,34.0,30.5,29.79,South,180,0.0,-999.0,87,-99.99,,,0.00,Acu-Link.com,2013-02-16 10:19:00,
2013-02-16 05:34:00,33.6,30.4,29.80,West,270,0.0,-999.0,88,-99.99,,,0.00,Acu-Link.com,2013-02-16 10:34:00,
2013-02-16 05:49:00,33.3,29.3,29.79,North,0,2.2,-999.0,85,-99.99,,,0.00,Acu-Link.com,2013-02-16 10:49:00,
2013-02-16 06:04:00,32.9,30.6,29.79,NNW,337,2.7,-999.0,91,-99.99,,,0.00,Acu-Link.com,2013-02-16 11:04:00,
2013-02-16 06:19:00,32.4,30.3,29.79,East,90,1.1,-999.0,92,-99.99,,,0.00,Acu-Link.com,2013-02-16 11:19:00,
2013-02-16 06:34:00,32.2,29.9,29.80,WSW,247,0.0,-999.0,91,-99.99,,,0.00,Acu-Link.com,2013-02-16 11:34:00,
2013-02-16 06:49:00,31.8,30.8,29.80,NNW,337,0.0,-999.0,96,-99.99,,,0.00,Acu-Link.com,2013-02-16 11:49:00,
2013-02-16 07:05:00,31.3,30.8,29.80,SW,225,0.0,-999.0,98,-99.99,,,0.00,Acu-Link.com,2013-02-16 12:05:00,
2013-02-16 07:20:00,31.1,30.6,29.81,North,0,0.0,-999.0,98,-99.99,,,0.00,Acu-Link.com,2013-02-16 12:20:00,
2013-02-16 07:35:00,30.6,30.1,29.80,SW,225,0.0,-999.0,98,-99.99,,,0.00,Acu-Link.com,2013-02-16 12:35:00,
2013-02-16 07:50:00,30.2,29.7,29.79,NNW,337,0.0,-999.0,98,-99.99,,,0.00,Acu-Link.com,2013-02-16 12:50:00,
2013-02-16 08:05:00,30.6,30.1,29.79,West,270,0.0,-999.0,98,-99.99,,,0.00,Acu-Link.com,2013-02-16 13:05:00,
2013-02-16 08:20:00,31.5,31.0,29.80,NNW,337,0.0,-999.0,98,-99.99,,,0.00,Acu-Link.com,2013-02-16 13:20:00,
2013-02-16 08:35:00,32.2,29.9,29.80,NNW,337,0.0,-999.0,91,-99.99,,,0.00,Acu-Link.com,2013-02-16 13:35:00,
2013-02-16 08:50:00,33.1,29.4,29.81,WSW,247,0.0,-999.0,86,-99.99,,,0.00,Acu-Link.com,2013-02-16 13:50:00,
2013-02-16 09:05:00,33.4,27.6,29.81,SSW,202,0.0,-999.0,79,-99.99,,,0.00,Acu-Link.com,2013-02-16 14:05:00,
2013-02-16 09:21:00,33.6,28.1,29.81,NNW,337,3.2,-999.0,80,-99.99,,,0.00,Acu-Link.com,2013-02-16 14:21:00,
2013-02-16 09:36:00,35.6,27.8,29.81,WSW,247,2.7,-999.0,73,-99.99,,,0.00,Acu-Link.com,2013-02-16 14:36:00,
2013-02-16 09:51:00,35.6,26.1,29.82,WNW,292,1.7,-999.0,68,-99.99,,,0.00,Acu-Link.com,2013-02-16 14:51:00,
2013-02-16 10:06:00,37.0,26.7,29.81,WNW,292,4.7,-999.0,66,-99.99,,,0.00,Acu-Link.com,2013-02-16 15:06:00,
2013-02-16 10:21:00,40.1,28.9,29.82,ESE,112,1.7,-999.0,64,-99.99,,,0.00,Acu-Link.com,2013-02-16 15:21:00,
2013-02-16 10:36:00,39.0,27.1,29.82,North,0,2.7,-999.0,62,-99.99,,,0.00,Acu-Link.com,2013-02-16 15:36:00,
2013-02-16 10:51:00,38.7,26.4,29.82,SW,225,0.0,-999.0,61,-99.99,,,0.00,Acu-Link.com,2013-02-16 15:51:00,
2013-02-16 11:06:00,38.7,26.0,29.83,WNW,292,2.7,-999.0,60,-99.99,,,0.00,Acu-Link.com,2013-02-16 16:06:00,
2013-02-16 11:21:00,37.2,24.2,29.83,West,270,4.2,-999.0,59,-99.99,,,0.00,Acu-Link.com,2013-02-16 16:21:00,
2013-02-16 11:37:00,38.3,25.6,29.83,SSE,157,0.0,-999.0,60,-99.99,,,0.00,Acu-Link.com,2013-02-16 16:37:00,
2013-02-16 11:52:00,39.4,23.7,29.82,North,0,3.2,-999.0,53,-99.99,,,0.00,Acu-Link.com,2013-02-16 16:52:00,
2013-02-16 12:07:00,40.6,23.4,29.83,WNW,292,5.3,-999.0,50,-99.99,,,0.00,Acu-Link.com,2013-02-16 17:07:00,
2013-02-16 12:22:00,39.7,20.6,29.82,WNW,292,1.1,-999.0,46,-99.99,,,0.00,Acu-Link.com,2013-02-16 17:22:00,
2013-02-16 12:37:00,43.0,20.4,29.82,North,0,1.7,-999.0,40,-99.99,,,0.00,Acu-Link.com,2013-02-16 17:37:00,
2013-02-16 12:52:00,43.0,17.9,29.82,NNE,22,4.7,-999.0,36,-99.99,,,0.00,Acu-Link.com,2013-02-16 17:52:00,
2013-02-16 13:07:00,40.8,19.5,29.81,SSW,202,2.2,-999.0,42,-99.99,,,0.00,Acu-Link.com,2013-02-16 18:07:00,
2013-02-16 13:22:00,39.4,17.1,29.81,West,270,1.7,-999.0,40,-99.99,,,0.00,Acu-Link.com,2013-02-16 18:22:00,
2013-02-16 13:37:00,39.7,18.5,29.79,NNW,337,1.1,-999.0,42,-99.99,,,0.00,Acu-Link.com,2013-02-16 18:37:00,
2013-02-16 13:53:00,42.1,20.7,29.78,WSW,247,3.2,-999.0,42,-99.99,,,0.00,Acu-Link.com,2013-02-16 18:53:00,
2013-02-16 14:08:00,41.7,22.5,29.78,North,0,4.2,-999.0,46,-99.99,,,0.00,Acu-Link.com,2013-02-16 19:08:00,
2013-02-16 14:23:00,40.6,20.9,29.79,NE,45,3.2,-999.0,45,-99.99,,,0.00,Acu-Link.com,2013-02-16 19:23:00,
2013-02-16 14:38:00,40.6,19.3,29.79,NNW,337,2.2,-999.0,42,-99.99,,,0.00,Acu-Link.com,2013-02-16 19:38:00,
2013-02-16 14:53:00,40.8,18.9,29.79,NNW,337,5.8,-999.0,41,-99.99,,,0.00,Acu-Link.com,2013-02-16 19:53:00,
2013-02-16 15:08:00,39.9,19.8,29.79,NW,315,0.0,-999.0,44,-99.99,,,0.00,Acu-Link.com,2013-02-16 20:08:00,
2013-02-16 15:23:00,39.7,21.6,29.79,South,180,2.7,-999.0,48,-99.99,,,0.00,Acu-Link.com,2013-02-16 20:23:00,
2013-02-16 15:38:00,40.3,21.2,29.80,SSE,157,7.8,-999.0,46,-99.99,,,0.00,Acu-Link.com,2013-02-16 20:38:00,
2013-02-16 15:53:00,39.6,21.1,29.81,NNW,337,1.1,-999.0,47,-99.99,,,0.00,Acu-Link.com,2013-02-16 20:53:00,
2013-02-16 16:09:00,38.1,17.6,29.81,North,0,6.8,-999.0,43,-99.99,,,0.00,Acu-Link.com,2013-02-16 21:09:00,
2013-02-16 16:24:00,39.0,19.5,29.81,WSW,247,1.1,-999.0,45,-99.99,,,0.00,Acu-Link.com,2013-02-16 21:24:00,
2013-02-16 16:39:00,39.4,20.9,29.81,NNW,337,2.2,-999.0,47,-99.99,,,0.00,Acu-Link.com,2013-02-16 21:39:00,
2013-02-16 16:54:00,37.8,18.4,29.82,North,0,3.2,-999.0,45,-99.99,,,0.00,Acu-Link.com,2013-02-16 21:54:00,
2013-02-16 17:09:00,37.0,20.6,29.82,SE,135,3.2,-999.0,51,-99.99,,,0.00,Acu-Link.com,2013-02-16 22:09:00,
2013-02-16 17:24:00,36.5,18.7,29.82,South,180,3.7,-999.0,48,-99.99,,,0.00,Acu-Link.com,2013-02-16 22:24:00,
2013-02-16 17:39:00,37.0,20.1,29.83,West,270,3.2,-999.0,50,-99.99,,,0.00,Acu-Link.com,2013-02-16 22:39:00,
2013-02-16 17:54:00,35.4,20.0,29.83,SSW,202,3.7,-999.0,53,-99.99,,,0.00,Acu-Link.com,2013-02-16 22:54:00,
2013-02-16 18:09:00,34.2,20.2,29.84,NE,45,3.7,-999.0,56,-99.99,,,0.00,Acu-Link.com,2013-02-16 23:09:00,
2013-02-16 18:24:00,33.3,20.1,29.85,North,0,0.0,-999.0,58,-99.99,,,0.00,Acu-Link.com,2013-02-16 23:24:00,
2013-02-16 18:40:00,32.0,27.4,29.86,NW,315,4.7,-999.0,83,-99.99,,,0.00,Acu-Link.com,2013-02-16 23:40:00,
2013-02-16 18:55:00,30.9,29.6,29.86,NNW,337,1.7,-999.0,95,-99.99,,,0.00,Acu-Link.com,2013-02-16 23:55:00,
2013-02-16 19:10:00,30.2,29.2,29.87,SSW,202,0.0,-999.0,96,-99.99,,,0.00,Acu-Link.com,2013-02-17 00:10:00,
2013-02-16 19:25:00,29.7,29.2,29.87,NNW,337,0.0,-999.0,98,-99.99,,,0.00,Acu-Link.com,2013-02-17 00:25:00,
2013-02-16 19:40:00,28.9,28.4,29.87,WSW,247,0.0,-999.0,98,-99.99,,,0.00,Acu-Link.com,2013-02-17 00:40:00,
2013-02-16 19:55:00,28.4,27.9,29.87,SE,135,0.0,-999.0,98,-99.99,,,0.00,Acu-Link.com,2013-02-17 00:55:00,
2013-02-16 20:10:00,28.0,27.5,29.87,NNW,337,0.0,-999.0,98,-99.99,,,0.00,Acu-Link.com,2013-02-17 01:10:00,
2013-02-16 20:25:00,27.7,27.2,29.87,SE,135,0.0,-999.0,98,-99.99,,,0.00,Acu-Link.com,2013-02-17 01:25:00,
2013-02-16 20:40:00,27.1,26.6,29.88,SSW,202,0.0,-999.0,98,-99.99,,,0.00,Acu-Link.com,2013-02-17 01:40:00,
2013-02-16 20:56:00,26.8,26.3,29.88,SSW,202,0.0,-999.0,98,-99.99,,,0.00,Acu-Link.com,2013-02-17 01:56:00,
2013-02-16 21:11:00,26.6,26.1,29.89,NNW,337,0.0,-999.0,98,-99.99,,,0.00,Acu-Link.com,2013-02-17 02:11:00,
2013-02-16 21:26:00,26.1,25.6,29.90,NNW,337,0.0,-999.0,98,-99.99,,,0.00,Acu-Link.com,2013-02-17 02:26:00,
2013-02-16 21:41:00,25.7,25.2,29.91,NNW,337,0.0,-999.0,98,-99.99,,,0.00,Acu-Link.com,2013-02-17 02:41:00,
2013-02-16 21:56:00,25.3,24.8,29.90,NNW,337,0.0,-999.0,98,-99.99,,,0.00,Acu-Link.com,2013-02-17 02:56:00,
2013-02-16 22:11:00,25.3,24.8,29.90,ENE,67,0.0,-999.0,98,-99.99,,,0.00,Acu-Link.com,2013-02-17 03:11:00,
2013-02-16 22:26:00,25.2,24.7,29.91,ENE,67,0.0,-999.0,98,-99.99,,,0.00,Acu-Link.com,2013-02-17 03:26:00,
2013-02-16 22:41:00,25.7,25.2,29.91,NE,45,1.7,-999.0,98,-99.99,,,0.00,Acu-Link.com,2013-02-17 03:41:00,
2013-02-16 22:56:00,25.5,24.3,29.92,SSE,157,0.0,-999.0,95,-99.99,,,0.00,Acu-Link.com,2013-02-17 03:56:00,
2013-02-16 23:12:00,25.3,22.8,29.92,South,180,0.0,-999.0,90,-99.99,,,0.00,Acu-Link.com,2013-02-17 04:12:00,
2013-02-16 23:27:00,25.2,21.1,29.92,SW,225,0.0,-999.0,84,-99.99,,,0.00,Acu-Link.com,2013-02-17 04:27:00,
2013-02-16 23:42:00,24.6,19.6,29.92,SW,225,0.0,-999.0,81,-99.99,,,0.00,Acu-Link.com,2013-02-17 04:42:00,
2013-02-16 23:57:00,24.4,19.7,29.91,SW,225,0.0,-999.0,82,-99.99,,,0.00,Acu-Link.com,2013-02-17 04:57:00,